Weather History for Glens Falls, NY

Change the Weather History Date:

Thursday, July 4, 2013

  Actual Average Record
Temperature  
Mean Temperature 79 °F 68 °F  
Max Temperature 88 °F 81 °F 95 °F (1949)
Min Temperature 70 °F 56 °F 40 °F (1979)
Degree Days  
Heating Degree Days 0 1  
Month to date heating degree days 0 4  
Since 1 June heating degree days 89 94  
Since 1 July heating degree days 0 4  
Cooling Degree Days 14 4  
Month to date cooling degree days 40 16  
Year to date cooling degree days 173 97  
Since 1 June cooling degree days 140 85  
Growing Degree Days 28 (Base 50)    
Moisture  
Dew Point 72 °F    
Average Humidity 80    
Maximum Humidity 100    
Minimum Humidity 59    
Precipitation  
Precipitation 0.03 in 0.12 in 1.73 in (1996)
Month to date precipitation 1.00 0.49  
Year to date precipitation 18.62 18.53  
Sea Level Pressure  
Sea Level Pressure 30.14 in    
Wind  
Wind Speed 6 mph (SSW)    
Max Wind Speed 16 mph    
Max Gust Speed 23 mph    
Visibility 9 miles    
Events Rain    
T = Trace of Precipitation, MM = Missing Value Source: NWS Daily Summary

Daily Weather History Graph

Daily Weather History Graph

Search for Another Location

Airport:

Trip Planner

Search our weather history database for the weather conditions in past years. The results will help you decide how hot, cold, wet, or windy it might be!

Date:

Astronomy

Jul. 04, 2013 Rise Set
Actual Time 5:19 AM EDT 8:37 PM EDT
Civil Twilight 4:44 AM EDT 9:13 PM EDT
Nautical Twilight 3:58 AM EDT 9:58 PM EDT
Astronomical Twilight 3:02 AM EDT 10:54 PM EDT
Moon 2:37 AM EDT (7/4) 5:37 PM EDT (7/4)
Length of Visible Light 16h 28m
Length of Day
15h 18m
Waning Crescent, 11% of the Moon is Illuminated
Jul 4
Waning Crescent
Jul 8
New
Jul 15
First Quarter
Jul 22
Full
Jul 29
Last Quarter

Hourly Weather History & Observations

Time (EDT) Temp. Heat Index Dew Point Humidity Pressure Visibility Wind Dir Wind Speed Gust Speed Precip Events Conditions
12:53 AM 73.9 °F - 71.1 °F 91% 30.16 in 10.0 mi Calm Calm - N/A   Clear
1:53 AM 73.0 °F - 70.0 °F 90% 30.16 in 9.0 mi Calm Calm - N/A   Clear
2:08 AM 71.6 °F - 69.8 °F 94% 30.16 in 1.8 mi Calm Calm - N/A   Clear
2:17 AM 69.8 °F - 69.8 °F 100% 30.17 in 2.5 mi SSW 3.5 mph - N/A   Clear
2:26 AM 71.6 °F - 69.8 °F 94% 30.17 in 6.0 mi South 3.5 mph - N/A   Clear
2:53 AM 72.0 °F - 70.0 °F 93% 30.16 in 8.0 mi Calm Calm - N/A   Clear
3:53 AM 71.1 °F - 69.1 °F 93% 30.15 in 8.0 mi Calm Calm - N/A   Clear
4:53 AM 72.0 °F - 71.1 °F 97% 30.17 in 7.0 mi South 4.6 mph - N/A   Scattered Clouds
5:53 AM 73.0 °F - 71.1 °F 93% 30.17 in 7.0 mi South 4.6 mph - N/A   Clear
6:53 AM 73.9 °F - 72.0 °F 93% 30.18 in 8.0 mi SSW 6.9 mph - N/A   Clear
7:53 AM 75.9 °F - 71.1 °F 85% 30.19 in 10.0 mi SSW 8.1 mph - N/A   Clear
8:53 AM 79.0 °F - 71.1 °F 77% 30.19 in 10.0 mi South 9.2 mph - N/A   Clear
9:53 AM 80.1 °F 83.6 °F 71.1 °F 74% 30.18 in 10.0 mi SSW 10.4 mph - N/A   Partly Cloudy
10:53 AM 82.0 °F 86.7 °F 72.0 °F 71% 30.17 in 10.0 mi SSW 8.1 mph - N/A   Partly Cloudy
11:53 AM 82.9 °F 88.0 °F 72.0 °F 69% 30.16 in 10.0 mi South 8.1 mph - N/A   Mostly Cloudy
12:53 PM 86.0 °F 92.2 °F 72.0 °F 63% 30.13 in 10.0 mi South 6.9 mph - N/A   Mostly Cloudy
1:53 PM 87.1 °F 93.6 °F 72.0 °F 61% 30.11 in 10.0 mi SSW 8.1 mph 23.0 mph N/A   Partly Cloudy
2:53 PM 88.0 °F 94.7 °F 72.0 °F 59% 30.10 in 10.0 mi South 10.4 mph - N/A   Mostly Cloudy
3:53 PM 88.0 °F 95.6 °F 73.0 °F 61% 30.08 in 10.0 mi SSW 10.4 mph 17.3 mph N/A   Scattered Clouds
4:53 PM 88.0 °F 96.5 °F 73.9 °F 63% 30.07 in 10.0 mi South 11.5 mph - N/A   Mostly Cloudy
5:53 PM 86.0 °F 93.0 °F 73.0 °F 65% 30.06 in 10.0 mi SSW 10.4 mph - N/A   Mostly Cloudy
6:53 PM 88.0 °F 95.6 °F 73.0 °F 61% 30.06 in 10.0 mi SSW 5.8 mph - N/A   Mostly Cloudy
7:53 PM 84.9 °F 90.7 °F 72.0 °F 65% 30.07 in 10.0 mi North 6.9 mph - N/A   Overcast
8:53 PM 80.1 °F 83.8 °F 72.0 °F 76% 30.09 in 10.0 mi Calm Calm - N/A   Mostly Cloudy
9:53 PM 77.0 °F - 73.0 °F 88% 30.10 in 10.0 mi Calm Calm - N/A   Mostly Cloudy
10:53 PM 75.9 °F - 73.0 °F 91% 30.12 in 10.0 mi Calm Calm - N/A   Overcast
11:53 PM 75.9 °F - 73.0 °F 91% 30.12 in 5.0 mi SW 3.5 mph - 0.02 in Rain Light Rain